Flag for Russia Weather past 2 weeks in Murmansk, Russia

Now
45 °F

Sprinkles. Fog.


Feels Like: 45 °F
Forecast: 30 / 42 °F
Wind: No wind

Location: Murmansk Airport

Current Time: Sep 20, 2014 at 6:30:41 PM

Latest Report: Sep 20, 2014 at 5:00 PM


Visibility: 3 mi

Pressure: 29.71 "Hg

Humidity: 93%

Dew point: 43 °F

Location of MurmanskLocation

Historic Weather in Murmansk — Graph

°F

Murmansk temperature yesterday

Maximum temperature yesterday: 48 °F (at 5:00 PM)
Minimum temperature yesterday: 28 °F (at 10:30 PM)
Average temperature yesterday: 39 °F

Past Weeks' High & Low Weather Summary

 TemperatureHumidityPressure
High63 °F (Sep 11, 1:30 PM)100% (Sep 7, 4:00 AM)30.39 "Hg (Sep 7, 4:00 AM)
Low23 °F (Sep 20, 6:30 AM)38% (Sep 14, 3:00 PM)29.71 "Hg (Sep 20, 3:30 PM)
Average46 °F76%30.04 "Hg
* Reported Sep 5 5:00 PM — Sep 20 5:00 PM, Murmansk, Weather by CustomWeather, © 2014

Note: Actual official high and low records may vary slightly from our data, if they occured in-between our weather recording intervals... More about our weather records

Advertising

Murmansk weather history for previous 24 hours

 ConditionsComfort  
Time TempWeatherWind HumidityBarometerVisibility
5:00 PM
Sep 20
45 °FSprinkles. Fog.No wind93%29.71 "Hg3 mi
4:30 PM45 °FSprinkles. Fog.No wind93%29.71 "Hg3 mi
4:00 PM45 °FSprinkles. Partly sunny.No wind93%29.71 "Hg4 mi
3:30 PM43 °FSprinkles. Partly sunny.No wind93%29.71 "Hg4 mi
3:00 PM43 °FSprinkles. Partly sunny.1 mph93%29.74 "Hg6 mi
2:30 PM43 °FSprinkles. Partly sunny.1 mph93%29.74 "Hg5 mi
2:00 PM41 °FPartly sunny.No wind93%29.74 "Hg5 mi
1:30 PM39 °FSprinkles. Broken clouds.No wind100%29.74 "Hg4 mi
1:00 PM39 °FSprinkles. Broken clouds.No wind100%29.77 "Hg4 mi
12:30 PM37 °FSprinkles. Fog.No wind100%29.77 "Hg3 mi
12:00 PM37 °FSprinkles. Fog.No wind93%29.77 "Hg3 mi
11:30 AM36 °FFog.No wind93%29.77 "Hg2 mi
11:00 AM34 °FFog.No wind100%29.80 "Hg3 mi
10:30 AM34 °FFog.1 mph93%29.80 "Hg3 mi
10:00 AM32 °FPartly sunny.1 mph93%29.80 "Hg4 mi
9:30 AM30 °FPartly sunny.No wind100%29.83 "Hg4 mi
9:00 AM30 °FPartly sunny.No wind93%29.83 "Hg5 mi
8:30 AM28 °FPartly sunny.No wind93%29.83 "Hg4 mi
8:00 AM25 °FIce fog.No wind100%29.86 "Hg3 mi
7:30 AM23 °FIce fog.No wind93%29.86 "Hg1 mi
7:00 AM23 °FPassing clouds.No wind93%29.89 "Hg1 mi
6:30 AM23 °FIce fog.No wind100%29.89 "Hg0 mi
6:00 AM25 °FIce fog.No wind93%29.89 "Hg0 mi
5:00 AM25 °FCold.No wind100%29.92 "HgN/A
4:00 AM25 °FIce fog.No wind93%29.92 "Hg1 mi
3:30 AM25 °FPassing clouds.No wind93%29.92 "Hg0 mi
3:00 AM25 °FIce fog.No wind93%29.95 "Hg1 mi
2:30 AM25 °FClear.No wind93%29.95 "Hg10 mi
2:00 AM25 °FClear.1 mph93%29.95 "Hg10 mi
1:00 AM27 °FClear.3 mph93%29.98 "Hg10 mi
12:30 AM27 °FClear.3 mph93%29.98 "Hg10 mi
12:00 AM28 °FClear.3 mph86%29.98 "Hg10 mi
11:30 PM
Sep 19
28 °FClear.1 mph93%29.98 "Hg10 mi
11:00 PM28 °FClear.3 mph93%29.98 "Hg10 mi
10:30 PM28 °FClear.1 mph93%29.98 "Hg10 mi
10:00 PM30 °FClear.1 mph86%29.98 "Hg10 mi
9:00 PM37 °FSunny.3 mph75%29.98 "Hg10 mi
8:30 PM39 °FSunny.3 mph70%29.98 "Hg10 mi
8:00 PM39 °FSunny.1 mph70%29.98 "Hg10 mi
7:30 PM39 °FSunny.No wind70%29.98 "Hg10 mi
7:00 PM45 °FSunny.1 mph57%30.01 "Hg10 mi
6:30 PM46 °FSunny.3 mph50%30.01 "Hg10 mi
6:00 PM46 °FSunny.6 mph50%30.01 "Hg10 mi
Weather by CustomWeather, © 2014

See weather overviewHow to use our weather pages